Regional Weather Roundup
Issued by NWS San Diego, CA

Home | Current Version | Previous Version | Text Only | Print | Product List | Glossary On
Versions: 1 2 3 4 5 6 7 8 9 10 11 12 13 14 15 16 17 18 19 20 21 22 23 24 25 26 27 28 29 30 31 32 33 34 35 36 37 38 39 40 41 42 43 44 45 46 47 48 49 50
000
ASUS46 KSGX 301610
RWRSGX

SAN DIEGO HOURLY WEATHER ROUNDUP
NATIONAL WEATHER SERVICE SAN DIEGO CA
900 AM PDT SAT AUG 30 2014

NOTE: "FAIR" INDICATES FEW OR NO CLOUDS BELOW 12,000 FEET WITH NO
SIGNIFICANT WEATHER AND/OR OBSTRUCTIONS TO VISIBILITY.

CAZ042-043-060-061-PZZ750-775-301700-

GREATER SAN DIEGO AREA

CITY           SKY/WX    TMP DP  RH WIND       PRES   REMARKS
LINDBERGH FLD  PTSUNNY   70  63  78 W5        29.85S
POINT LOMA       N/A     69  64  84 W2          N/A
NATIONAL CITY    N/A     69  66  88 S3        29.85R
CHULA VISTA      N/A     69  65  88 W5        29.77S
IMPERIAL BEACH CLOUDY    69  64  84 SW5       29.85R
BROWN FIELD    CLOUDY    68  63  84 CALM      29.85R HAZE
MIRAMAR MCAS   PTSUNNY   69  62  78 CALM      29.85R
MONTGOMERY FLD CLOUDY    69  63  81 CALM      29.85S HAZE

$$

NORTH SAN DIEGO COUNTY

CITY           SKY/WX    TMP DP  RH WIND       PRES   REMARKS
CAMP PENDLETON CLOUDY    66  62  87 CALM      29.84S FOG
OCEANSIDE AP   CLOUDY    69  63  81 CALM      29.84R HAZE
OCEANSIDE HBR    N/A     68  64  86 SE2       29.87R
VISTA            N/A     65  61  88 CALM      29.82R
CARLSBAD       CLOUDY    68  63  84 CALM      29.84R
DEL MAR          N/A     68  65  91 CALM      29.86S
LA JOLLA SCRIP   N/A     67  65  94 CALM      29.82R
FALLBROOK        N/A     64  64 100 CALM      29.86R
ESCONDIDO        N/A     66  63  91 CALM      29.85R
SAN MARCOS       N/A     66  61  85 CALM      29.82R
POWAY            N/A     65  63  91 W2        29.85R

$$

EAST SAN DIEGO COUNTY

CITY           SKY/WX    TMP DP  RH WIND       PRES   REMARKS
RAMONA         SUNNY     78  49  35 CALM      29.86S
SANTEE LAKES     N/A     67  64  90 CALM      29.85R
LA MESA          N/A     68  65  92 CALM      29.77S
JAMUL            N/A     65  64  97 W3        29.81F
DESCANSO N       N/A     88  30  12 E3        29.69S
MT. LAGUNA OBS   N/A     77  24  14 SW6       29.72F
CAMPO            N/A     84  41  21 CALM      29.89F

$$

ORANGE COUNTY AND THE LOS ANGELES BASIN

CITY           SKY/WX    TMP DP  RH WIND       PRES   REMARKS
JOHN WAYNE AP  CLOUDY    70  62  76 CALM      29.84S
LAGUNA BEACH     N/A     69  65  86 S2        29.80S
LAKE FOREST FR   N/A     65  60  81 CALM      29.74R
SANTA ANA        N/A     68  65  89 CALM      29.79S
HUNTINGTON BCH   N/A     68  65  92 S2        29.86S
LOS ALAMITOS   PTSUNNY   69  64  82 VRB2      29.85R
FULLERTON      PTSUNNY   71  63  75 CALM      29.83S
LONG BEACH     CLOUDY    69  63  81 VRB3      29.84R
L.A. AP        PTSUNNY   71  64  78 S3        29.85R
L.A. DOWNTOWN  SUNNY     73  64  73 CALM      29.83R

$$

THE INLAND EMPIRE

CITY           SKY/WX    TMP DP  RH WIND       PRES   REMARKS
CORONA         SUNNY     74  60  61 CALM      29.85S
CHINO          MOSUNNY   72  61  68 CALM      29.86S
ONTARIO        MOSUNNY   74  59  59 CALM      29.85S
SAN BERNARDINO SUNNY     73  50  43 CALM      29.87S
RIVERSIDE AP   SUNNY     74  58  57 CALM      29.85F
RIV CYN CREST    N/A     73  66  79 SW2       29.82S
MORENO VALLEY    N/A     79  60  52 CALM      29.06S
MARCH ARB      SUNNY     75  56  51 E1        29.87F
HORSETHIEF CYN   N/A     77  51  39 E1        29.83S
PERRIS           N/A     75  58  55 S1        29.85F
MENIFEE          N/A     75  59  57 CALM      29.93F
HEMET EAST       N/A     75  39  26 CALM      29.80R
FRENCH VALLEY  FAIR      75  55  50 CALM      29.87S
TEMECULA         N/A     66  57  72 CALM      29.84R

$$

SAN BERNARDINO AND RIVERSIDE COUNTY MOUNTAINS

CITY           SKY/WX    TMP DP  RH WIND       PRES   REMARKS
BIG BEAR AP    SUNNY     70  32  24 W5        30.22S
ANGELUS OAKS     N/A     70  33  25 CALM      29.71S
PINE COVE        N/A     75  23  14 S2        29.69R

$$

SOUTHERN DESERT INCLUDING THE COACHELLA VALLEY

CITY           SKY/WX    TMP DP  RH WIND       PRES   REMARKS
PALM SPRINGS   SUNNY     91  48  22 SW3       29.75S
PALM DESERT      N/A     92  48  22 CALM      29.22S
THERMAL        SUNNY     93  46  19 NW3       29.69R
BLYTHE         SUNNY     90  46  21 E3        29.74S
IMPERIAL AP    SUNNY     91  48  22 SW6       29.70S
EL CENTRO NAS  SUNNY     91  48  22 MISG      29.72R
YUMA AZ        SUNNY     93  45  19 S5        29.73R
MEXICALI       SUNNY     91  50  24 S5        29.73

$$

UPPER DESERT

CITY           SKY/WX    TMP DP  RH WIND       PRES   REMARKS
VICTORVILLE AP SUNNY     81  28  15 SW3       29.94S
HESPERIA         N/A     80  36  21 CALM      29.89F
APPLE VALLEY     N/A     77  33  19 CALM      30.01F
PALMDALE       SUNNY     87  35  15 W12       29.92S
LANCASTER      SUNNY     86  37  17 W21       29.90S
EDWARDS AFB    PTSUNNY   85  34  16 SW12      29.87F
DAGGETT        SUNNY     87  35  15 W13       29.86S
29 PALMS N     SUNNY     86  31  13 NW3       29.93F
NEEDLES        SUNNY     90  39  16 E3        29.78S

$$

REGIONAL REPORTS

CITY           SKY/WX    TMP DP  RH WIND       PRES   REMARKS
SANTA BARBARA  SUNNY     69  63  81 SE10      29.83S
SANDBERG       SUNNY     77  36  22 VRB7      30.08S
MT. WILSON       N/A     82  10   6 MISG        N/A
LAS VEGAS NV   PTSUNNY   90  34  13 CALM      29.81S
PHOENIX AZ     MOSUNNY   91  45  20 E9        29.82R
TIJUANA        PTSUNNY   70  61  73 NW5       29.87  FOG
ENSENADA NW      N/A     70  32  24 W2        29.80F

$$

OFFSHORE ISLANDS

CITY           SKY/WX    TMP DP  RH WIND       PRES   REMARKS
CATALINA ARPT  SUNNY     75  58  55 CALM      29.88S
SAN NICOLAS IS SUNNY    N/A N/A N/A CALM      29.84R

$$

MARINE AND OFFSHORE BUOY REPORTS

STATION/POSITION SKY/WX   TEMP    WIND        PRES    SWELL
                          AIR SEA DIR/SP/G            HT/PER/DIR
                          (F)     (DEG/KT/KT) (MB)    (FT/S/D)
TANNER BANKS               66 69  320/ 12/ 16 1010.6R   5/320/ 7
S CLEMENTE BASIN           66 71   CALM  /  2 1010.5R   5/220/15
SAN NICOLAS IS.               65                N/A     2/200/15
SO. S. ROSA ISLA           63 67  320/ 16/ 17 1009.8R   3/ 8
W. S. BARBARA CH           61 61  320/ 17/ 19 1009.6R   3/220/ 9
M. S. BARBARA CH           66 66   50/  4/  4 1010.1
S. MONICA BASIN            68 71  140/  6/  8 1009.8F   3/190/ 8
S PEDRO CHANNEL               72                N/A     2/160/11
DANA POINT                    72                N/A     2/190/15
CMP PENDLETON NS              73                N/A     2/220/15
OCEANSIDE OFFSHR              74                N/A     2/200/15
TORREY PINES OTR              73                N/A     2/200/15
LA JOLLA 1                 69 71  290/  1/  3 1010.6S
MISSION BAY BUOY              68                N/A     2/220/15
SAN DIEGO BAY                 74              1011.0R
POINT LOMA SOUTH              74                N/A     2/210/15

$$



USA.gov is the U.S. government's official web portal to all federal, state and local government web resources and services.